[[{"header":{"parameterUnit":"m.s-1","parameterCategory":1,"la1":30.2991,"la2":30.254,"lo1":-89.0895,"lo2":-89.0444,"dy":0.0017,"dx":0.0017,"nx":28,"ny":28,"refTime":"2025-04-25T09:00:00:Z","depth":0,"parameterNumber":2,"parameterNumberName":"U-component_of_WINDS"},"data":[0,0,0,0,0,0,0,0,0,0,0,0,0,0,0,0,0,0,0,0,0,0,0,0,0,0,0,0,0,0,0,0,0,0,0,0,0,0,0,0,0,0,0,0,0,0,0,0,0,0,0,0,0,0,0,0,0,0,-3.427,-3.4272,0,-3.4376,-3.4377,-3.4378,-3.4362,-3.436,-3.4358,-3.4356,-3.4462,-3.4466,-3.4471,0,0,0,0,0,0,0,0,0,0,0,0,0,-3.4052,-3.4056,-3.427,-3.4272,-3.4273,-3.4376,-3.4377,-3.4379,-3.4362,-3.436,-3.4358,-3.4356,-3.446,-3.4466,-3.4471,0,0,0,0,0,0,0,0,0,0,0,0,0,-3.4151,-3.4057,-3.427,-3.4277,-3.4279,-3.4376,-3.4377,-3.4379,-3.4362,-3.436,-3.4357,-3.4355,-3.4459,-3.4465,-3.4472,-3.4567,0,0,-3.4492,-3.4495,0,0,0,0,0,0,0,0,-3.4145,-3.4159,-3.4275,-3.4277,-3.4279,-3.4353,-3.4339,-3.4442,-3.4363,-3.4331,-3.4356,-3.4353,-3.4428,-3.4437,-3.4462,-3.4572,-3.4577,-3.4493,-3.4497,-3.45,-3.4502,0,0,0,0,0,0,0,-3.4138,-3.4154,-3.4312,-3.4276,-3.4279,-3.4274,-3.4285,-3.4358,-3.4393,-3.4333,-3.4332,-3.4345,-3.4428,-3.4456,-3.4465,-3.4578,-3.4493,-3.4499,-3.4503,-3.4505,-3.4771,-3.4774,0,0,0,0,0,0,-3.413,-3.4149,-3.4309,-3.4315,-3.4204,-3.428,-3.4293,-3.4332,-3.4392,-3.4399,-3.4347,-3.4344,-3.4446,-3.4457,-3.4468,-3.4583,-3.45,-3.4506,-3.451,-3.4768,-3.4771,-3.4775,0,0,0,0,0,0,-3.4125,-3.4144,-3.4304,-3.4232,-3.4252,-3.4287,-3.4331,-3.4335,-3.4363,-3.4403,-3.4409,-3.437,-3.4444,-3.4459,-3.4543,-3.4587,-3.4509,-3.4515,-3.4764,-3.4769,-3.4773,-3.4814,0,0,0,0,0,0,-3.4119,-3.4143,-3.418,-3.4233,-3.4256,-3.4378,-3.4334,-3.4339,-3.4375,-3.4372,-3.4425,-3.4431,-3.4443,-3.4533,-3.4549,-3.4594,-3.452,-3.476,-3.4766,-3.4772,-3.4809,-3.4819,-3.4828,0,0,0,0,0,-3.4111,-3.4187,-3.4182,-3.4201,-3.4303,-3.4381,-3.4394,-3.4406,-3.4379,-3.4416,-3.4441,-3.443,-3.458,-3.4542,-3.456,-3.4608,-3.4758,-3.4765,-3.4771,-3.4804,-3.4817,-3.4828,0,0,0,0,0,0,-3.4138,-3.4194,-3.4189,-3.4284,-3.4328,-3.4378,-3.4425,-3.442,-3.4471,-3.4466,-3.4479,-3.4491,-3.4576,-3.46,-3.4557,-3.4703,-3.4664,-3.4675,-3.4683,-3.4696,-3.4706,-3.4697,-3.4526,0,0,0,0,0,-3.4155,-3.4214,-3.426,-3.4339,-3.4361,-3.439,-3.4424,-3.443,-3.4475,-3.4493,-3.4525,-3.4568,-3.4625,-3.4662,-3.4717,-3.4813,-3.4823,-3.4855,-3.4865,-3.4872,-3.4881,-3.4932,-3.4946,-3.4797,-3.4797,-3.4797,0,0,-3.419,-3.4228,-3.4265,-3.4345,-3.438,-3.444,-3.4405,-3.447,-3.4514,-3.4503,-3.4584,-3.4609,-3.4658,-3.4748,-3.4789,-3.4771,-3.4925,-3.4881,-3.4887,-3.4891,-3.4941,-3.4955,-3.4968,-3.4801,-3.4801,-3.48,0,0,-3.4285,-3.4321,-3.439,-3.4426,-3.4479,-3.4497,-3.4514,-3.4565,-3.4581,-3.4663,-3.4655,-3.4708,-3.4805,-3.4841,-3.4871,-3.498,-3.497,-3.4997,-3.5048,-3.5098,-3.5109,-3.512,-3.5157,-3.5171,-3.5006,-3.5006,-3.5006,0,-3.4322,-3.4413,-3.4426,-3.4492,-3.4527,-3.4521,-3.4591,-3.4625,-3.4692,-3.4716,-3.4695,-3.4818,-3.4851,-3.4948,-3.4975,-3.5001,-3.5019,-3.4991,-3.5107,-3.5118,-3.5127,-3.5163,-3.5177,-3.5009,-3.5009,-3.5009,-3.5008,0,-3.4455,-3.4518,-3.4568,-3.4634,-3.4675,-3.4743,-3.4766,-3.4805,-3.4808,-3.4828,-3.4911,-3.4951,-3.5013,-3.5037,-3.504,-3.5135,-3.5122,-3.5104,-3.5065,-3.5144,-3.5178,-3.5192,-3.5013,-3.5012,-3.5011,-3.5011,0,0,-3.4568,-3.4642,-3.466,-3.4689,-3.4747,-3.4796,-3.4863,-3.4924,-3.4957,-3.5005,-3.506,-3.5143,-3.5127,-3.5162,-3.5169,-3.5213,-3.5295,-3.519,-3.5191,-3.5207,-3.5401,-3.5412,-3.5428,-3.529,-3.5293,-3.5295,-3.5396,0,-3.4668,-3.4787,-3.4801,-3.4906,-3.4964,-3.4959,-3.5017,-3.5058,-3.5079,-3.513,-3.5153,-3.5211,-3.5186,-3.5207,-3.5251,-3.5276,-3.5334,-3.5269,-3.534,-3.5342,-3.5326,-3.5446,-3.5459,-3.5553,-3.5409,-3.5412,-3.5413,0,-3.4799,-3.4851,-3.4962,-3.5011,-3.5036,-3.5088,-3.5145,-3.5195,-3.5241,-3.5253,-3.5293,-3.5294,-3.5362,-3.5322,-3.5415,-3.5371,-3.5401,-3.5418,-3.5421,-3.5427,-3.5381,-3.5454,-3.5583,-3.5596,-3.5434,-3.5433,-3.5431,0,-3.4869,-3.4966,-3.5045,-3.5071,-3.5131,-3.5167,-3.5194,-3.5238,-3.5274,-3.5324,-3.5347,-3.5404,-3.5435,-3.5478,-3.5495,-3.5464,-3.5586,-3.5548,-3.5597,-3.5596,-3.5622,-3.5619,-3.5756,-3.5644,-3.5643,-3.5643,-3.5643,0,-3.4977,-3.5045,-3.5077,-3.5125,-3.5201,-3.5217,-3.5291,-3.5316,-3.5355,-3.5407,-3.5407,-3.5455,-3.5475,-3.5527,-3.554,-3.5614,-3.5629,-3.5639,-3.5641,-3.5638,-3.5637,-3.5657,-3.565,-3.5647,-3.5646,-3.5645,-3.5645,0,-3.5067,-3.5092,-3.5177,-3.5227,-3.5242,-3.5295,-3.5338,-3.5384,-3.5404,-3.547,-3.5487,-3.5519,-3.5579,-3.5601,-3.5674,-3.5683,-3.5769,-3.5767,-3.5754,-3.5754,-3.5801,-3.5796,-3.5954,-3.5975,-3.585,-3.5851,-3.5852,0,-3.5134,-3.5187,-3.5243,-3.5278,-3.5306,-3.5363,-3.54,-3.5418,-3.5456,-3.5512,-3.5551,-3.5612,-3.5662,-3.5759,-3.5788,-3.5844,-3.5842,-3.5894,-3.585,-3.5845,-3.5841,-3.5837,-3.5842,-3.5901,-3.5902,-3.5904,-3.5904,0,-3.525,-3.526,-3.5313,-3.5371,-3.5415,-3.5461,-3.5506,-3.5534,-3.5558,-3.5601,-3.5663,-3.5702,-3.5777,-3.5837,-3.5895,-3.5921,-3.5916,-3.5918,-3.5932,-3.5929,-3.5918,-3.5923,-3.5774,-3.5914,-3.5913,-3.5912,-3.5912,-3.5911,-3.533,-3.5376,-3.5422,-3.5482,-3.5517,-3.5559,-3.5604,-3.5631,-3.5684,-3.5747,-3.5754,-3.5821,-3.5866,-3.5942,-3.5971,-3.6023,-3.6009,-3.603,-3.6035,-3.6039,-3.6042,-3.5911,-3.6034,-3.6034,-3.6034,-3.6033,-3.6033,0,-3.5445,-3.5474,-3.5529,-3.5592,-3.5638,-3.5631,-3.568,-3.5719,-3.5778,-3.5821,-3.5869,-3.5941,-3.5999,-3.6033,-3.609,-3.6125,-3.6125,-3.614,-3.6136,-3.6142,-3.6052,-3.6034,-3.6139,-3.6139,-3.6139,-3.6139,-3.6139,-3.6139,-3.551,-3.5586,-3.5601,-3.5695,-3.5724,-3.5791,-3.5819,-3.5857,-3.5891,-3.5971,-3.6019,-3.6041,-3.608,-3.6141,-3.6193,-3.6201,-3.6222,-3.6238,-3.6245,-3.616,-3.6149,-3.6138,-3.6121,-3.6243,-3.6243,-3.6331,-3.6331,-3.6332]},{"header":{"parameterUnit":"m.s-1","parameterCategory":1,"la1":30.2991,"la2":30.254,"lo1":-89.0895,"lo2":-89.0444,"dy":0.0017,"dx":0.0017,"nx":28,"ny":28,"refTime":"2025-04-25T09:00:00:Z","depth":0,"parameterNumber":3,"parameterNumberName":"V-component_of_WINDS"},"data":[0,0,0,0,0,0,0,0,0,0,0,0,0,0,0,0,0,0,0,0,0,0,0,0,0,0,0,0,0,0,0,0,0,0,0,0,0,0,0,0,0,0,0,0,0,0,0,0,0,0,0,0,0,0,0,0,0,0,3.7408,3.7409,0,3.7456,3.7456,3.7457,3.7416,3.7414,3.7412,3.7411,3.7455,3.7458,3.7461,0,0,0,0,0,0,0,0,0,0,0,0,0,3.7278,3.728,3.7408,3.7409,3.7409,3.7456,3.7456,3.7457,3.7416,3.7414,3.7412,3.741,3.7454,3.7458,3.7461,0,0,0,0,0,0,0,0,0,0,0,0,0,3.7331,3.7281,3.7408,3.7395,3.7394,3.7456,3.7456,3.7457,3.7416,3.7414,3.7411,3.7409,3.7453,3.7457,3.7461,3.7538,0,0,3.7474,3.7476,0,0,0,0,0,0,0,0,3.7328,3.7336,3.7396,3.7396,3.7395,3.7427,3.7427,3.7484,3.7417,3.7408,3.741,3.7408,3.7448,3.7452,3.7466,3.754,3.7542,3.7474,3.7477,3.7479,3.748,0,0,0,0,0,0,0,3.7324,3.7333,3.7427,3.7397,3.7396,3.7385,3.7389,3.7437,3.7441,3.7408,3.7405,3.7412,3.7447,3.7463,3.7467,3.7542,3.7474,3.7478,3.748,3.7482,3.7679,3.7682,0,0,0,0,0,0,3.7322,3.733,3.7425,3.7428,3.7355,3.7389,3.7394,3.7419,3.7441,3.7441,3.7414,3.741,3.7457,3.7462,3.7469,3.7558,3.7479,3.7482,3.7485,3.7677,3.768,3.7683,0,0,0,0,0,0,3.732,3.7331,3.7423,3.7379,3.739,3.7394,3.7422,3.7422,3.7437,3.7445,3.7445,3.743,3.7455,3.7463,3.7521,3.7559,3.7484,3.7488,3.7673,3.7678,3.7681,3.7739,0,0,0,0,0,0,3.7316,3.7331,3.7361,3.738,3.7392,3.7476,3.7425,3.7424,3.7445,3.744,3.746,3.746,3.7454,3.7515,3.7525,3.7564,3.7491,3.767,3.7675,3.768,3.7734,3.7745,3.7754,0,0,0,0,0,3.7312,3.7374,3.7362,3.7374,3.743,3.7479,3.7485,3.7478,3.7448,3.7478,3.7483,3.746,3.7554,3.7521,3.7532,3.7573,3.7667,3.7674,3.768,3.7729,3.7743,3.7754,0,0,0,0,0,0,3.7358,3.7377,3.7364,3.7435,3.7456,3.7472,3.7508,3.7492,3.7521,3.7515,3.7503,3.7507,3.7568,3.7576,3.754,3.7647,3.7606,3.7614,3.764,3.7652,3.7663,3.7659,3.7495,0,0,0,0,0,3.7377,3.7417,3.743,3.7491,3.7502,3.7504,3.7525,3.7517,3.7538,3.7546,3.7555,3.7575,3.7609,3.7631,3.7663,3.7735,3.7738,3.7769,3.7779,3.7787,3.7794,3.7832,3.7846,3.7703,3.7703,3.7703,0,0,3.7416,3.7431,3.7456,3.7501,3.7516,3.7556,3.7511,3.7555,3.7584,3.7552,3.7607,3.7615,3.7636,3.7702,3.7731,3.771,3.7835,3.7795,3.7802,3.7804,3.784,3.7854,3.7866,3.7707,3.7707,3.7706,0,0,3.7506,3.7522,3.7575,3.7591,3.7615,3.7616,3.7629,3.7648,3.7652,3.7707,3.7684,3.7717,3.7777,3.7792,3.7808,3.7905,3.7884,3.7916,3.7968,3.8005,3.8017,3.8027,3.806,3.8072,3.7923,3.7923,3.7923,0,3.7551,3.7611,3.7603,3.7649,3.7669,3.7643,3.7695,3.7711,3.7744,3.7758,3.7735,3.7808,3.782,3.7889,3.7913,3.7927,3.7939,3.7913,3.8016,3.8026,3.8035,3.8067,3.8079,3.7927,3.7926,3.7926,3.7926,0,3.7664,3.7706,3.7745,3.7779,3.7803,3.7852,3.785,3.7876,3.7866,3.7869,3.7925,3.7939,3.7973,3.7989,3.7979,3.8056,3.8042,3.8018,3.7976,3.8052,3.8082,3.8094,3.7932,3.7931,3.793,3.7929,0,0,3.7785,3.7814,3.7828,3.7843,3.7868,3.79,3.7947,3.7981,3.8002,3.8026,3.8064,3.8115,3.8093,3.8111,3.8103,3.8135,3.821,3.8107,3.8107,3.8124,3.8294,3.8311,3.8326,3.8197,3.8199,3.8201,3.8292,0,3.7875,3.7959,3.7953,3.8031,3.8069,3.8045,3.8086,3.8105,3.8109,3.814,3.8144,3.8179,3.8148,3.8158,3.819,3.8194,3.8243,3.8188,3.8231,3.8233,3.8225,3.8341,3.836,3.8445,3.8303,3.8305,3.8307,0,3.7992,3.8021,3.8103,3.8122,3.8138,3.8175,3.8206,3.8237,3.8257,3.8258,3.8278,3.8265,3.8311,3.8268,3.8331,3.8293,3.831,3.8315,3.8318,3.8321,3.8274,3.8346,3.8472,3.8484,3.8325,3.8323,3.8322,0,3.8071,3.813,3.8187,3.82,3.8224,3.825,3.8261,3.8279,3.83,3.8327,3.834,3.8371,3.8388,3.8412,3.8407,3.8377,3.847,3.8428,3.847,3.8471,3.849,3.8489,3.8619,3.8503,3.8503,3.8503,3.8503,0,3.8172,3.8223,3.8222,3.8257,3.8313,3.8305,3.836,3.8368,3.8384,3.8419,3.84,3.8433,3.8424,3.8456,3.8452,3.8504,3.8512,3.8513,3.8511,3.8514,3.8514,3.8524,3.8518,3.8506,3.8506,3.8505,3.8504,0,3.8269,3.8271,3.8331,3.8349,3.8354,3.8395,3.8409,3.8441,3.8444,3.8488,3.8497,3.8501,3.8537,3.8535,3.8576,3.8573,3.8637,3.8629,3.863,3.8628,3.8671,3.8667,3.8812,3.883,3.8703,3.8704,3.8706,0,3.8333,3.8372,3.8394,3.8417,3.843,3.8466,3.8488,3.8482,3.8505,3.8531,3.856,3.8595,3.8623,3.8682,3.8687,3.8718,3.871,3.8759,3.8714,3.8716,3.8709,3.8707,3.871,3.8767,3.8768,3.877,3.8771,0,3.8447,3.8446,3.8478,3.8511,3.8538,3.8563,3.8586,3.8605,3.8601,3.8628,3.8666,3.8687,3.873,3.8764,3.8794,3.8803,3.8786,3.8785,3.8796,3.8799,3.8798,3.8798,3.8653,3.8781,3.878,3.8779,3.8779,3.8778,3.8529,3.8562,3.8583,3.8619,3.8636,3.8658,3.8689,3.8696,3.8728,3.8762,3.8757,3.8799,3.8817,3.8856,3.8868,3.89,3.8883,3.8899,3.8903,3.8907,3.8912,3.8794,3.8906,3.8905,3.8905,3.8905,3.8905,0,3.864,3.8653,3.8687,3.872,3.8748,3.8731,3.8756,3.878,3.8818,3.8838,3.8866,3.8909,3.8942,3.8951,3.8982,3.9006,3.8999,3.9015,3.9012,3.9015,3.8926,3.8913,3.902,3.902,3.902,3.902,3.902,3.902,3.8702,3.8757,3.8758,3.8821,3.8832,3.8874,3.889,3.8909,3.8925,3.8974,3.9003,3.9008,3.9023,3.9056,3.9085,3.9087,3.9099,3.9118,3.9116,3.9033,3.9021,3.901,3.8997,3.912,3.9121,3.9201,3.9202,3.9203]}]]